Weather History for Louisville, KY

Change the Weather History Date:

Monday, February 18, 2013

  Actual Average Record
Temperature  
Mean Temperature 46 °F 40 °F  
Max Temperature 63 °F 49 °F 73 °F (1948)
Min Temperature 29 °F 31 °F -7 °F (1936)
Degree Days  
Heating Degree Days 19 25  
Month to date heating degree days 484 493  
Since 1 July heating degree days 2806 3002  
Cooling Degree Days 0 0  
Month to date cooling degree days 0 0  
Year to date cooling degree days 0 0  
Moisture  
Dew Point 27 °F    
Average Humidity 50    
Maximum Humidity 71    
Minimum Humidity 29    
Precipitation  
Precipitation 0.14 in 0.11 in 3.53 in (2000)
Month to date precipitation 0.69 2.03  
Year to date precipitation 5.79 5.27  
Snow  
Snow 0.00 in 0.10 in 4.70 in (1979)
Month to date snowfall 3.2 3.2  
Since 1 July snowfall 8.1 9.7  
Snow Depth 0.00 in    
Sea Level Pressure  
Sea Level Pressure 30.00 in    
Wind  
Wind Speed 14 mph (SSE)    
Max Wind Speed 31 mph    
Max Gust Speed 46 mph    
Visibility 10 miles    
Events Rain    
T = Trace of Precipitation, MM = Missing Value Source: NWS Daily Summary

Daily Weather History Graph

Daily Weather History Graph

Search for Another Location

Airport:

Trip Planner

Search our weather history database for the weather conditions in past years. The results will help you decide how hot, cold, wet, or windy it might be!

Date:

Astronomy

Feb. 18, 2013 Rise Set
Actual Time 7:29 AM EST 6:25 PM EST
Civil Twilight 7:02 AM EST 6:51 PM EST
Nautical Twilight 6:31 AM EST 7:22 PM EST
Astronomical Twilight 6:00 AM EST 7:53 PM EST
Moon 12:12 PM EST (2/18) 2:05 AM EST (2/18)
Length of Visible Light 11h 49m
Length of Day
10h 55m
First Quarter, 58% of the Moon is Illuminated
Feb 18
First Quarter
Feb 25
Full
Mar 4
Last Quarter
Mar 11
New
Mar 19
First Quarter

Hourly Weather History & Observations

Time (EST) Temp. Windchill Dew Point Humidity Pressure Visibility Wind Dir Wind Speed Gust Speed Precip Events Conditions
12:56 AM 30.0 °F 24.1 °F 15.1 °F 54% 30.20 in 10.0 mi SSE 5.8 mph - N/A   Scattered Clouds
1:56 AM 30.0 °F 24.1 °F 15.1 °F 54% 30.18 in 10.0 mi SE 5.8 mph - N/A   Scattered Clouds
2:56 AM 30.0 °F 24.1 °F 15.1 °F 54% 30.17 in 10.0 mi SE 5.8 mph - N/A   Scattered Clouds
3:56 AM 30.0 °F 22.4 °F 16.0 °F 56% 30.14 in 10.0 mi SE 8.1 mph - N/A   Scattered Clouds
4:56 AM 28.9 °F 23.9 °F 16.0 °F 58% 30.13 in 10.0 mi SE 4.6 mph - N/A   Mostly Cloudy
5:56 AM 30.2 °F 23.4 °F 17.6 °F 60% 30.12 in 10.0 mi SE 6.9 mph - N/A   Mostly Cloudy
6:56 AM 30.0 °F 24.1 °F 18.0 °F 61% 30.12 in 10.0 mi SE 5.8 mph - N/A   Mostly Cloudy
7:56 AM 32.0 °F 24.8 °F 19.0 °F 59% 30.12 in 10.0 mi SE 8.1 mph - N/A   Mostly Cloudy
8:56 AM 37.9 °F 31.5 °F 21.0 °F 51% 30.12 in 10.0 mi SSE 9.2 mph - N/A   Mostly Cloudy
9:56 AM 46.0 °F 40.2 °F 25.0 °F 44% 30.09 in 10.0 mi South 12.7 mph - N/A   Overcast
10:56 AM 50.0 °F - 28.9 °F 44% 30.07 in 10.0 mi South 13.8 mph 21.9 mph N/A   Overcast
11:56 AM 55.9 °F - 33.1 °F 42% 30.04 in 10.0 mi SSW 13.8 mph - N/A   Mostly Cloudy
12:56 PM 60.1 °F - 34.0 °F 38% 30.01 in 10.0 mi SSW 21.9 mph 28.8 mph N/A   Overcast
1:56 PM 62.1 °F - 32.0 °F 32% 29.97 in 10.0 mi South 19.6 mph 27.6 mph N/A   Overcast
2:56 PM 62.1 °F - 30.9 °F 31% 29.94 in 10.0 mi South 17.3 mph 26.5 mph N/A   Mostly Cloudy
3:56 PM 62.1 °F - 30.0 °F 30% 29.90 in 10.0 mi South 24.2 mph 29.9 mph N/A   Mostly Cloudy
4:56 PM 61.0 °F - 28.9 °F 30% 29.88 in 10.0 mi South 20.7 mph 28.8 mph N/A   Mostly Cloudy
6:56 PM 59.0 °F - 30.0 °F 33% 29.85 in 10.0 mi South 17.3 mph 31.1 mph N/A   Overcast
7:56 PM 55.9 °F - 37.0 °F 49% 29.84 in 10.0 mi South 17.3 mph 29.9 mph 0.00 in Rain Light Rain
8:56 PM 52.0 °F - 39.0 °F 61% 29.78 in 10.0 mi SSE 13.8 mph 26.5 mph 0.01 in   Overcast
9:56 PM 52.0 °F - 39.0 °F 61% 29.80 in 10.0 mi South 17.3 mph 24.2 mph 0.02 in Rain Light Rain
10:56 PM 50.0 °F - 41.0 °F 71% 29.78 in 9.0 mi South 17.3 mph 31.1 mph 0.02 in Rain Light Rain
11:56 PM 48.9 °F - 42.1 °F 77% 29.77 in 9.0 mi South 20.7 mph 28.8 mph 0.09 in Rain Light Rain